Find Local Weather

World > North America > United States > New Jersey

Fairfield, New Jersey Regional Weather

Lat: 40.88N, Lon: 74.31W
Wx Zone: NJZ105
Warning FLW WEATHER ALERT - FLASH FLOOD WATCH (More Info. Click Here) Warning
Feedback
Expires:201901231600;;804869
ASUS41 KOKX 231513
RWROKX

Regional Weather Roundup
National Weather Service New York NY
1000 AM EST WED JAN 23 2019

Note: "FAIR" indicates few or no clouds below 12,000 feet with no
significant weather and/or obstructions to visibility.


NJZ001-105-106-008-010-013-015-019>022-104-231600-
New Jersey
  
CITY           SKY/WX    TMP DP  RH WIND       PRES   REMARKS
Newark/Liberty CLOUDY    33  20  58 S7        30.33F WCI  27          
Teterboro      CLOUDY    33  20  58 S12       30.32F WCI  24          
Caldwell       CLOUDY    30  20  66 SW3       30.32F                  
Somerville     CLOUDY    31  21  66 S3        30.31F                  
Linden         CLOUDY    33  19  56 CALM      30.33F                  
Perth Amboy      N/A    N/A N/A N/A S2          N/A                   
Sussex         CLOUDY    30  19  63 SW7       30.25F WCI  23          
Andover          N/A     30  19  63 VRB5      30.26F WCI  25          
Trenton        CLOUDY    32  22  66 S6        30.31F WCI  26          
Millville      CLOUDY    37  22  54 S5        30.34F WCI  33          
Atlantic City  CLOUDY    38  18  44 SW9       30.36S WCI  31          
Wrightstown    CLOUDY    35  19  51 SW10      30.30  WCI  28          
Toms River     CLOUDY    37  16  42 S9        30.34F WCI  30          
Belmar         CLOUDY    36  15  42 S7        30.33F WCI  30          
$$
 

SKY/WX - Weather  TMP - Temperature  DP - Dew Point  RH - Relative Humidity
WIND - Wind Direction/Speed PRES - Barometric Pressure